Weather Roundup
Issued by NWS Springfield, MO

Home | Current Version | Previous Version | Text Only | Print | Product List | Glossary On
Versions: 1 2 3 4 5 6 7 8 9 10 11 12 13 14 15 16 17 18 19 20 21 22 23 24 25 26 27 28 29 30 31 32 33 34 35 36 37 38 39 40 41 42 43 44 45 46 47 48 49 50
000
NZUS99 KSGF 210207
HRRSGF

HOURLY WEATHER
NATIONAL WEATHER SERVICE SPRINGFIELD MO
900 PM CDT FRI APR 20 2018

......SGF CWA......

CITY           SKY/WX    TMP DP  RH WIND       PRES   REMARKS
SPRINGFIELD    CLOUDY    58  19  22 E10       30.21S
JOPLIN         CLOUDY    60  28  29 E12       30.16F
WEST PLAINS    CLOUDY    55  17  22 SE7       30.28R
OSAGE BEACH    PTCLDY    58  20  22 E12       30.27R
BRANSON        MOCLDY    55  19  24 E12       30.22S

......SURROUNDING SGF CWA......

CITY           SKY/WX    TMP DP  RH WIND       PRES   REMARKS
CHANUTE        CLOUDY    60  30  32 E8        30.16S
PARSONS        CLOUDY    60  32  34 E6        30.16R
COFFEYVILLE    MOCLDY    60  33  36 E10       30.12F
EMPORIA        PTCLDY    56  29  35 E9        30.17S
GROVE OK       CLOUDY    63  32  31 E9        30.14S
ROGERS AR      MOCLDY    60  26  27 E13       30.16F
SILOAM SPRINGS CLOUDY    60  23  24 SE10      30.15F
HARRISON AR    CLEAR     56  19  23 E8        30.22R
NEAR YELLVILLE CLEAR     58  20  22 E5        30.25R

......KANSAS AND MISSOURI......

CITY           SKY/WX    TMP DP  RH WIND       PRES   REMARKS
KANSAS CTY INT CLOUDY    56  25  30 E12       30.26F
DOWNTOWN KC    CLOUDY    60  26  27 E9        30.24F
COLUMBIA       PTCLDY    55  20  25 E9        30.30R
SEDALIA        CLOUDY    56  22  26 E7        30.28R
ST JOSEPH      CLOUDY    57  26  30 E7        30.29S
ST LOUIS       MOCLDY    53  25  33 E8        30.34S
SPIRIT OF STL  CLOUDY    50  29  44 CALM      30.33R
KIRKSVILLE     CLOUDY    50  25  37 NE6       30.36R
WICHITA        LGT RAIN  60  30  32 E12       30.10F
TOPEKA         MOCLDY    58  29  33 NE8       30.23S
OLATHE         CLOUDY    57  27  31 E10       30.23F

......TENNESSEE......

CITY           SKY/WX    TMP DP  RH WIND       PRES   REMARKS
MEMPHIS        FAIR      62  32  32 NE8       30.23R
NASHVILLE      PTCLDY    56  32  40 N9        30.31R

......ARKANSAS.......

CITY           SKY/WX    TMP DP  RH WIND       PRES   REMARKS
FAYETTEVILLE   CLOUDY    58  23  26 SE6       30.16S
FT SMITH       CLOUDY    61  33  35 E12G22    30.14S
LITTLE ROCK    PTCLDY    59  36  42 NE3       30.23R

......OKLAHOMA.......

CITY           SKY/WX    TMP DP  RH WIND       PRES   REMARKS
TULSA          CLOUDY    62  34  35 E10       30.09S
PONCA CITY     CLOUDY    61  31  32 SE12      30.08R
MCALESTER      CLOUDY    61  35  37 VRB7      30.11R
OKLAHOMA CITY  MOCLDY    59  35  40 SE22      30.05R

......IOWA............

CITY           SKY/WX    TMP DP  RH WIND       PRES   REMARKS
DES MOINES     CLOUDY    56  25  30 E6        30.37R
QUAD CITIES    FAIR      49  28  44 CALM      30.39R

......ILLINOIS........

CITY           SKY/WX    TMP DP  RH WIND       PRES   REMARKS
QUINCY         MOCLDY    53  20  27 E6        30.36R
CHICAGO        MOCLDY    49  11  21 E6        30.44R





USA.gov is the U.S. government's official web portal to all federal, state and local government web resources and services.